Find Starlink 32147

NORAD ID: 60152 Int'l Des: 2024-120 Owner: SPXS Country: US Constellation: starlink operational
LEOCIRCULAR

現在のビュー

3D地球を読み込み中...

About Starlink 32147

Starlink 32147 (NORAD 60152) is a starlink constellation satellite (v2 mini) launched Jun 27, 2024 by SPXS of US. It operates in LEO, CIRCULAR orbit with a mass of 730.00 kg.

Starlink 32147について

説明を読み込み中...

次回通過

Passes for default location (London). Set your location on the main map for personalized predictions.

高度履歴

Loading altitude history...

軌道要素

1 60152U 24120T 26171.36329560 -.00003762 00000-0 -10031-3 0 9992
2 60152 53.1588 202.4717 0001365 75.9951 284.1203 15.34385366112109
Epoch: Jun 20, 2026 • Age: 30 hours

現在のステータス

高度 463.6 km
速度 7.64 km/s
衛星直下点 26.91°N, 141.28°W
打ち上げ日 Jun 27, 2024
運用期間 1.9 years
タイプ internet

技術仕様

分類 Payload
質量 730.00 kg
乾燥質量 700.00 kg
総質量 730.00 kg
長さ 0.30 m
直径 4.10 m
スパン 29.00 m
形状 Box + pan
製造者 SPXS
バスタイプ Starlink V2M
フェーズステータス In Orbit
所有者/国 SPXS/US

Most Searched